TimeCST,TemperatureF,Dew PointF,Humidity,Sea Level PressureIn,VisibilityMPH,Wind Direction,Wind SpeedMPH,Gust SpeedMPH,PrecipitationIn,Events,Conditions,WindDirDegrees,DateUTC
12:53 AM,30.9,28.0,89,30.26,4.0,North,8.1,-,N/A,,Overcast,360,2013-02-08 06:53:00
1:53 AM,30.0,27.0,88,30.26,5.0,North,9.2,-,N/A,,Overcast,360,2013-02-08 07:53:00
2:53 AM,28.9,26.1,89,30.27,4.0,NNE,8.1,-,N/A,,Overcast,20,2013-02-08 08:53:00
3:53 AM,28.9,26.1,89,30.28,3.0,North,8.1,-,N/A,,Overcast,10,2013-02-08 09:53:00
4:44 AM,30.2,26.6,86,30.27,2.5,NNE,6.9,-,N/A,,Overcast,20,2013-02-08 10:44:00
4:53 AM,28.9,26.1,89,30.31,2.5,NNE,9.2,-,N/A,,Overcast,30,2013-02-08 10:53:00
5:53 AM,28.9,26.1,89,30.31,2.5,NNE,8.1,-,N/A,,Overcast,30,2013-02-08 11:53:00
6:53 AM,28.0,25.0,88,30.33,2.5,NNE,6.9,-,N/A,,Overcast,30,2013-02-08 12:53:00
7:29 AM,28.4,24.8,86,30.30,3.0,NE,6.9,-,N/A,,Overcast,50,2013-02-08 13:29:00
7:42 AM,28.4,24.8,86,30.30,2.0,NE,8.1,-,N/A,,Overcast,50,2013-02-08 13:42:00
7:53 AM,28.0,25.0,88,30.35,2.5,NNE,6.9,-,N/A,,Overcast,20,2013-02-08 13:53:00
8:11 AM,28.4,26.6,93,30.31,3.0,ENE,8.1,-,N/A,,Overcast,60,2013-02-08 14:11:00
8:53 AM,28.0,26.1,92,30.36,4.0,ENE,8.1,-,N/A,,Overcast,60,2013-02-08 14:53:00
9:53 AM,28.9,26.1,89,30.36,4.0,East,9.2,-,N/A,,Overcast,90,2013-02-08 15:53:00
10:53 AM,30.9,26.1,82,30.37,3.0,NE,4.6,-,N/A,,Haze,50,2013-02-08 16:53:00
11:53 AM,32.0,26.1,79,30.39,5.0,SSE,3.5,-,N/A,,Haze,150,2013-02-08 17:53:00
12:53 PM,35.1,28.0,76,30.35,5.0,NE,4.6,-,N/A,,Haze,40,2013-02-08 18:53:00
1:19 PM,35.6,28.4,75,30.31,7.0,East,3.5,-,N/A,,Scattered Clouds,80,2013-02-08 19:19:00
1:53 PM,37.9,28.9,70,30.32,9.0,East,3.5,-,N/A,,Clear,90,2013-02-08 19:53:00
2:53 PM,39.0,28.9,67,30.28,10.0,ESE,5.8,-,N/A,,Clear,110,2013-02-08 20:53:00
3:53 PM,39.9,30.0,68,30.27,9.0,SE,8.1,-,N/A,,Clear,140,2013-02-08 21:53:00
4:53 PM,39.9,30.9,70,30.26,10.0,ESE,9.2,-,N/A,,Clear,110,2013-02-08 22:53:00
5:53 PM,37.0,30.0,76,30.25,10.0,ESE,9.2,-,N/A,,Clear,120,2013-02-08 23:53:00
6:53 PM,34.0,30.0,85,30.26,9.0,SSE,6.9,-,N/A,,Clear,150,2013-02-09 00:53:00
7:53 PM,32.0,28.9,88,30.24,7.0,SE,6.9,-,N/A,,Clear,130,2013-02-09 01:53:00
8:53 PM,33.1,30.0,89,30.23,5.0,SE,6.9,-,N/A,,Clear,130,2013-02-09 02:53:00
9:53 PM,33.1,28.9,85,30.23,6.0,SE,11.5,-,N/A,,Clear,130,2013-02-09 03:53:00
10:53 PM,32.0,28.9,88,30.21,6.0,SE,11.5,-,N/A,,Clear,130,2013-02-09 04:53:00
11:53 PM,32.0,28.9,88,30.19,7.0,SE,11.5,-,N/A,,Clear,130,2013-02-09 05:53:00